sat.trackr.live / text

‹ back to catalog

STARLINK-31018

NORAD 58635 · 2023-203T

PAYLOAD ACTIVE UNKNOWN

§ Identity

Operator
Country
US
Launch date
2023-12-23
Launch site
AFETR
Launch vehicle
Mass (kg)
RCS (m²)

Purposes: comms

External: N2YO · Heavens-Above · Gunter

§ Orbital elements

Epoch: 2026-09-20T17:01:23.246112Z

Period
94.27 min
Inclination
43.0040°
Eccentricity
0.0001181
Mean motion
15.27573230 rev/d
Perigee alt
482.3 km
Apogee alt
483.9 km
Semi-major
6,861.2 km
B*
-3.9868e-6
RAAN
46.0258°
Arg perigee
269.3449°
Mean anomaly
90.7267°
Rev number
15,461

§ Raw data

STARLINK-310181 58635U 23203T   26263.70929683 -.00000372  00000+0 -39868-5 0  99922 58635  43.0040  46.0258 0001181 269.3449  90.7267 15.27573230154616

JSON: /api/v1/satellites/58635 · /tle

For live sub-satellite position, see the globe view (requires WebGL).

§ Visibility from observer

Set your observer location to see the next 7 days of passes ≥ 10°. The values pass through the URL so the page stays shareable.

No JS? Fill the form by hand. The geolocation button needs JavaScript.